Temperature
6 7 6 6 6 6 6 6 6 8 8 9 10 9 8 7 7 6 5 5 5 6 8 9 9 9 9 8 8 8 8 7 7 6 6 5 5 4 4 3 2 2 1 1
7 8 7 7 7 7 7 7 7 7 8 10 9 8 7 7 7 6 5 5 5 6 8 9 9 8 8 8 7 7 7 6 6 5 5 4 4 3 3 2 1 1 1 0
7 8 8 8 8 8 7 8 8 7 9 10 9 9 8 7 7 6 6 5 5 7 8 8 8 8 8 7 7 6 6 6 5 5 4 4 3 2 2 1 1 0 0 -0
7 8 9 10 9 9 8 9 9 9 9 9 9 8 8 8 8 7 6 5 6 7 8 8 8 8 7 7 6 6 5 5 4 4 3 3 2 1 1 1 0 0 -0 -1
7 8 9 10 9 9 8 9 9 9 9 9 8 8 8 9 8 8 7 7 8 8 9 8 8 7 7 6 6 5 5 4 4 3 3 2 1 1 0 0 -0 -1 -1 -2
8 8 9 10 10 9 9 9 10 9 9 9 9 9 9 9 9 9 8 8 8 8 8 8 7 7 6 6 5 4 4 3 3 2 2 1 1 0 -0 -0 -1 -1 -2 -2
8 8 9 10 9 10 10 11 10 9 9 9 8 9 8 9 9 9 9 8 8 8 8 8 7 6 6 5 4 4 3 2 2 1 1 0 0 -0 -1 -1 -1 -2 -2 -3
7 8 9 10 9 9 10 9 9 9 9 8 7 7 7 8 9 9 8 8 8 8 7 7 6 6 5 4 3 3 2 2 1 1 0 -0 -0 -1 -1 -2 -2 -3 -3 -3
7 9 9 9 9 9 9 9 8 7 7 8 6 5 6 7 7 8 8 7 7 7 6 6 5 5 5 4 3 2 2 1 1 0 -0 -1 -1 -1 -2 -2 -3 -4 -4 -5
7 8 8 9 9 9 9 8 8 7 7 8 7 5 5 6 6 7 7 7 6 6 6 5 4 4 4 3 2 1 1 0 -0 -1 -1 -1 -2 -2 -3 -3 -4 -5 -6 -7
7 8 8 9 9 9 9 8 7 6 6 7 7 6 6 6 6 6 6 6 6 6 5 4 3 2 2 2 1 1 0 -0 -1 -1 -2 -2 -2 -3 -3 -4 -5 -6 -7 -8
8 9 8 8 8 8 9 8 7 7 5 5 7 6 6 6 6 6 6 5 5 4 4 2 2 1 1 1 0 -0 -1 -1 -1 -2 -2 -2 -3 -3 -4 -5 -6 -7 -7 -8
10 9 9 8 8 8 8 7 7 7 7 6 6 7 7 6 6 5 5 4 4 3 3 2 1 1 0 -0 -1 -1 -1 -2 -2 -2 -3 -3 -4 -4 -5 -5 -6 -6 -7 -8
9 9 7 7 7 7 7 7 7 7 7 7 7 7 6 6 5 4 4 3 3 2 2 1 1 0 -1 -1 -1 -1 -2 -2 -3 -3 -4 -4 -5 -6 -6 -7 -7 -7 -7 -8
8 9 9 8 7 7 7 7 7 6 6 6 6 6 6 5 4 3 2 2 2 1 1 0 -0 -1 -1 -2 -2 -2 -3 -3 -3 -4 -5 -5 -6 -6 -7 -7 -8 -8 -8 -8
8 8 8 7 7 6 7 7 7 6 6 6 5 5 5 4 3 2 1 1 1 0 -0 -1 -1 -1 -2 -2 -3 -3 -3 -4 -4 -5 -5 -6 -6 -7 -8 -8 -8 -9 -9 -9
7 5 5 6 6 6 7 8 8 7 6 6 5 4 4 3 2 1 0 0 -0 -1 -1 -2 -2 -2 -3 -3 -3 -4 -4 -5 -5 -5 -6 -6 -7 -8 -8 -9 -9 -9 -9 -10
8 9 9 9 8 7 7 7 7 7 6 5 4 4 3 3 2 1 -0 -1 -1 -1 -2 -2 -3 -3 -3 -4 -4 -4 -5 -5 -6 -6 -7 -7 -8 -9 -9 -9 -10 -10 -10 -10
8 8 7 7 7 7 7 7 7 6 5 5 4 3 2 2 1 0 -1 -1 -1 -2 -2 -3 -3 -4 -4 -4 -5 -5 -5 -6 -6 -7 -7 -8 -8 -9 -9 -10 -10 -10 -10 -10
7 7 6 6 6 7 7 7 6 5 5 4 4 2 1 0 -0 -1 -1 -2 -2 -3 -3 -4 -4 -4 -5 -5 -5 -5 -6 -6 -7 -8 -8 -9 -9 -9 -10 -10 -10 -10 -11 -11
6 5 5 5 6 6 6 6 6 5 4 3 3 2 1 -0 -1 -1 -2 -2 -3 -4 -4 -4 -5 -5 -5 -5 -6 -6 -7 -7 -8 -8 -9 -9 -10 -10 -10 -10 -11 -11 -11 -11
4 4 4 5 5 5 5 5 5 4 3 2 2 1 0 -1 -2 -2 -3 -3 -4 -4 -5 -5 -5 -5 -5 -6 -6 -7 -7 -8 -8 -9 -9 -10 -10 -10 -10 -11 -11 -11 -11 -11
3 3 4 4 5 5 4 4 4 3 2 2 1 0 -0 -1 -2 -3 -3 -4 -4 -5 -5 -5 -5 -6 -6 -6 -7 -7 -8 -8 -9 -9 -10 -10 -10 -11 -11 -11 -11 -11 -11 -11
2 2 3 4 5 4 3 2 2 2 1 0 -1 -1 -1 -2 -3 -4 -4 -4 -5 -5 -5 -6 -6 -6 -7 -7 -8 -8 -8 -9 -9 -9 -10 -10 -10 -11 -11 -11 -11 -11 -11 -11
2 3 3 4 4 4 3 2 1 0 -0 -1 -2 -2 -3 -3 -3 -4 -5 -5 -5 -5 -6 -6 -6 -7 -7 -8 -8 -9 -9 -9 -10 -10 -10 -10 -11 -11 -11 -11 -12 -12 -11 -11
1 2 3 4 4 3 2 1 1 -0 -1 -1 -2 -3 -4 -4 -5 -5 -5 -5 -6 -6 -6 -7 -7 -7 -8 -8 -9 -9 -9 -9 -10 -10 -10 -11 -11 -11 -11 -11 -12 -12 -11 -11
2 2 3 2 2 2 1 1 0 -1 -1 -2 -2 -4 -4 -5 -5 -5 -6 -6 -6 -6 -7 -7 -8 -8 -8 -9 -9 -9 -9 -10 -10 -10 -10 -11 -11 -11 -11 -11 -12 -11 -11 -11
Wind_Speed
19 21 18 18 18 18 21 20 14 15 18 21 13 9 6 3 10 13 14 15 15 15 14 15 15 14 14 14 13 14 14 13 11 10 9 9 8 7 6 6 5 3 3 3
16 17 18 19 19 19 20 20 22 21 21 13 7 4 2 6 12 14 15 15 14 15 15 15 16 15 15 14 12 13 13 12 11 10 9 8 8 7 6 5 3 3 3 4
9 10 10 9 11 16 14 13 13 18 18 13 12 9 5 9 12 14 15 14 15 15 15 15 15 16 15 13 13 13 13 11 10 10 9 8 7 6 5 3 3 3 4 5
7 8 5 6 5 9 13 14 14 14 13 12 9 6 3 7 11 11 13 14 14 14 13 13 13 14 14 13 13 13 12 10 9 9 9 7 6 5 4 2 2 3 4 5
4 6 7 7 2 4 5 6 12 16 15 10 4 3 2 3 8 9 11 12 13 13 15 15 15 15 15 13 12 12 11 10 9 9 8 7 6 4 2 2 2 3 4 6
4 5 4 5 3 3 3 5 7 12 13 8 3 1 1 3 7 11 13 13 14 15 16 15 14 15 16 14 12 11 10 9 8 8 8 7 5 3 2 1 3 4 5 6
6 4 6 6 3 4 2 5 3 7 9 7 5 1 4 7 8 12 14 16 16 16 15 14 15 15 15 13 11 10 11 10 9 8 7 6 4 2 2 2 4 5 6 7
5 4 6 5 2 3 4 4 4 2 4 6 6 7 8 10 12 14 16 16 16 16 14 12 13 15 15 12 11 11 11 10 8 7 5 5 4 3 3 4 5 6 6 7
7 7 4 3 3 4 3 4 3 0 3 11 10 8 10 11 13 13 15 14 14 16 15 11 10 13 16 11 11 12 11 9 7 7 5 4 3 3 3 3 4 5 5 7
5 7 6 4 2 2 4 3 3 5 8 8 12 13 14 13 13 13 14 14 15 16 16 12 10 11 13 12 11 11 10 8 6 5 4 4 3 2 3 4 5 6 6 7
5 7 5 2 1 3 5 8 10 11 10 13 17 16 15 14 13 13 13 12 13 15 15 13 12 12 11 10 11 11 9 6 5 4 3 3 3 2 4 4 5 8 5 6
6 5 4 1 4 6 7 8 10 14 14 10 13 17 15 14 12 13 13 13 14 15 15 13 13 11 9 9 9 9 7 5 4 3 2 3 4 5 7 8 12 14 14 13
3 2 3 5 6 6 7 9 10 11 13 14 11 14 16 14 12 12 13 14 14 14 14 13 12 11 8 8 8 8 7 5 3 3 2 3 3 4 6 8 11 13 15 18
4 5 4 4 5 8 11 13 14 14 13 13 13 13 14 14 13 13 13 12 13 14 13 12 12 9 7 7 8 8 6 5 4 2 2 3 3 4 5 6 9 8 13 18
2 2 6 9 11 12 11 14 16 14 13 12 11 13 14 15 14 12 11 12 14 13 12 11 11 8 6 7 8 7 5 3 2 2 2 3 4 4 5 6 7 8 9 11
6 8 11 12 13 12 12 14 15 13 12 12 12 12 13 14 14 12 10 10 12 12 10 10 9 6 6 7 7 5 4 5 4 3 3 4 4 5 5 6 7 8 9 10
9 9 9 11 12 11 10 10 13 14 13 13 13 14 15 15 14 12 10 9 11 10 8 9 8 6 7 7 6 4 3 4 6 4 3 4 4 5 6 6 7 8 9 12
3 6 8 13 15 14 12 12 13 14 13 12 14 14 14 14 13 12 11 12 12 11 8 7 7 7 7 6 5 3 3 2 3 3 4 4 5 5 6 7 8 9 9 12
6 9 11 11 12 14 14 14 13 13 14 14 14 13 12 12 12 11 10 11 11 9 5 6 10 8 6 5 5 3 3 3 3 3 4 7 7 6 6 7 8 9 10 10
8 11 14 14 13 14 15 15 15 14 13 14 16 15 14 12 11 11 11 9 5 5 6 7 7 6 5 4 5 3 3 3 3 4 4 4 5 6 7 8 9 10 10 10
12 14 15 16 15 13 14 16 16 15 13 13 15 15 13 11 10 9 10 8 4 6 7 9 5 4 4 4 5 3 3 3 4 4 5 5 6 7 7 8 9 10 10 10
11 14 16 16 17 14 11 12 15 16 15 14 14 14 14 12 10 9 8 6 5 9 6 4 3 5 5 5 3 3 3 4 4 4 4 5 6 7 8 8 9 9 9 10
11 14 15 16 17 16 14 13 13 14 14 14 13 13 12 9 7 8 6 4 5 8 6 3 5 7 6 4 3 3 4 4 5 5 5 5 6 6 7 8 8 9 9 10
13 14 15 15 17 18 16 13 12 12 13 12 11 11 11 9 7 5 5 9 10 9 5 5 7 6 6 3 3 4 4 5 5 6 6 5 5 6 7 7 8 9 9 11
13 14 15 16 15 13 15 15 14 14 13 11 10 9 7 6 6 6 6 7 9 8 5 5 7 6 4 3 4 4 4 5 6 6 5 6 6 6 7 7 8 9 10 10
12 11 10 10 12 12 12 11 10 9 10 10 8 7 7 8 8 7 6 6 7 6 4 3 4 5 4 4 4 5 5 6 7 6 6 7 7 7 8 8 10 9 10 10
12 11 11 12 10 9 10 10 11 10 9 10 8 6 7 7 7 6 6 5 4 3 3 3 3 4 4 4 5 5 5 5 6 6 6 6 6 7 8 9 9 10 10 11
Wind_Direction
260 268 268 262 251 233 227 230 241 256 264 276 292 300 294 190 150 144 145 146 146 142 138 134 131 129 128 127 126 125 122 121 121 120 116 113 108 104 99 92 86 68 38 7
276 271 266 264 253 240 235 235 240 258 271 274 290 300 262 173 164 160 159 156 148 143 141 140 138 135 132 129 127 125 123 123 124 121 115 111 108 104 95 84 67 38 14 350
285 293 285 268 246 229 227 226 228 245 256 278 293 286 241 186 177 171 165 159 155 152 149 144 142 140 137 133 127 123 123 125 125 121 114 110 107 98 87 75 46 10 348 338
289 302 292 284 265 221 225 233 223 239 259 274 281 293 262 186 173 164 159 156 151 145 139 134 130 130 126 127 126 124 124 125 123 118 113 108 99 89 77 62 20 347 329 325
281 296 290 298 284 176 198 248 225 233 249 259 284 333 347 138 151 151 151 149 145 140 137 135 135 135 130 126 125 125 127 125 122 119 116 108 96 84 71 32 355 328 318 321
279 301 304 308 320 146 135 289 232 218 234 233 212 282 280 111 123 128 129 132 132 131 131 133 136 136 131 131 130 130 128 121 115 114 114 109 102 89 56 7 332 327 322 317
244 269 280 289 299 127 141 283 292 209 220 201 199 225 92 95 100 117 122 125 128 130 133 137 139 135 131 130 128 124 118 112 107 106 108 108 98 79 37 2 346 336 321 314
197 230 268 319 57 176 254 298 319 244 194 156 123 90 87 96 106 113 118 121 125 124 123 128 133 130 125 122 119 116 113 109 105 100 98 97 87 60 26 6 346 331 319 314
202 223 259 281 265 289 299 294 316 268 126 129 119 111 107 105 108 111 116 117 119 121 118 112 115 125 123 122 121 115 110 107 105 97 85 81 73 36 6 355 336 318 309 308
258 265 264 270 284 352 7 23 56 98 115 120 121 122 115 112 110 111 112 116 120 119 116 107 100 105 117 121 118 114 111 109 105 97 80 51 39 22 352 328 317 311 311 310
259 274 291 297 87 87 80 82 85 83 91 116 122 119 118 115 113 113 113 114 116 117 114 109 105 103 108 114 114 110 108 104 96 85 70 33 7 332 315 281 287 310 302 302
227 243 208 232 114 119 109 101 106 108 100 95 114 119 115 111 112 113 112 111 109 108 109 108 106 102 99 105 112 113 108 99 89 74 46 22 349 328 322 320 322 323 323 322
213 97 103 103 96 98 104 106 104 105 113 110 105 112 114 112 109 108 107 110 111 112 111 109 105 100 99 102 103 104 107 101 84 63 30 356 337 327 323 325 324 326 328 328
139 127 123 128 117 109 111 106 100 96 97 105 109 109 109 107 106 105 106 108 110 109 108 107 104 99 99 100 98 95 92 82 75 50 4 332 317 309 304 311 318 318 324 327
53 127 133 120 113 114 115 116 109 106 105 100 103 108 110 110 107 105 106 109 107 105 106 106 104 99 97 98 96 93 85 69 53 23 347 323 313 308 303 303 307 310 314 321
92 93 113 123 128 130 129 126 122 120 116 113 108 104 104 105 105 104 105 111 112 113 113 109 105 105 100 96 93 83 64 41 36 17 347 329 319 313 312 312 313 314 317 321
130 135 139 141 143 140 135 130 130 128 122 117 115 114 110 107 103 98 90 89 98 101 104 108 107 102 95 94 91 81 58 22 14 8 341 324 315 314 316 315 314 314 313 316
163 161 160 155 150 138 124 117 120 120 118 121 120 115 113 114 114 112 108 103 95 84 77 94 103 96 90 90 87 73 50 21 2 345 332 321 320 321 318 315 314 313 314 318
120 126 125 125 129 127 123 120 116 114 118 121 116 110 108 110 115 115 112 107 106 101 90 101 106 93 86 83 85 62 43 20 0 342 328 331 334 322 319 317 315 315 316 319
111 117 117 115 115 120 120 118 116 114 116 117 113 110 108 110 113 110 99 86 79 109 117 106 95 88 79 65 72 57 38 13 348 332 325 322 320 318 318 320 320 318 318 318
120 120 119 117 112 112 119 123 121 118 117 116 117 118 117 113 109 108 105 97 78 99 104 102 89 85 81 68 58 46 23 356 337 326 322 320 318 317 318 319 318 317 316 316
122 123 121 119 116 109 107 112 116 117 114 112 113 116 116 111 101 88 80 100 114 111 96 82 80 89 78 63 45 22 358 338 324 316 312 310 312 313 313 312 312 312 312 312
120 121 121 120 117 111 103 102 108 113 115 118 121 120 116 111 107 112 106 101 104 104 92 77 81 76 62 49 20 355 337 325 317 312 306 301 300 300 303 305 306 307 308 308
119 118 118 118 116 111 106 101 99 101 102 101 105 111 114 108 83 71 106 119 113 98 76 70 64 55 44 27 351 331 320 314 306 299 297 299 298 298 299 302 304 305 304 304
120 122 124 123 117 115 117 113 105 102 99 95 87 80 77 91 110 105 91 95 103 92 63 45 40 33 25 346 329 318 311 303 300 304 308 306 302 302 301 301 301 302 303 302
123 120 115 114 120 126 127 122 118 117 115 107 93 83 87 90 94 93 87 81 82 83 67 36 11 4 346 327 317 311 307 310 315 312 301 299 299 300 300 302 301 301 300 300
110 111 110 106 106 113 119 120 121 121 121 119 111 102 100 98 95 92 88 80 68 54 34 11 354 338 326 319 313 309 305 302 302 301 299 295 294 295 297 297 298 298 299 299
Height
1410 1405 1403 1400 1397 1397 1398 1395 1393 1379 1375 1368 1367 1367 1365 1364 1364 1366 1370 1374 1378 1383 1390 1398 1407 1415 1423 1430 1437 1443 1448 1454 1458 1462 1465 1467 1468 1469 1470 1470 1469 1468 1467 1465
1402 1394 1391 1387 1384 1384 1385 1385 1383 1379 1372 1364 1365 1364 1363 1363 1364 1367 1371 1376 1380 1386 1392 1400 1408 1415 1423 1430 1437 1443 1448 1453 1457 1460 1463 1465 1466 1467 1467 1467 1467 1465 1464 1461
1395 1387 1384 1377 1371 1372 1373 1372 1376 1375 1366 1362 1363 1362 1362 1362 1364 1367 1371 1377 1382 1387 1394 1402 1409 1417 1424 1431 1438 1444 1448 1452 1456 1459 1462 1463 1464 1465 1465 1465 1464 1462 1460 1457
1396 1388 1378 1369 1361 1362 1364 1365 1367 1365 1361 1361 1361 1360 1360 1361 1364 1368 1373 1378 1384 1390 1397 1404 1412 1420 1427 1433 1439 1444 1448 1452 1455 1458 1460 1461 1463 1463 1463 1462 1461 1459 1456 1453
1395 1385 1376 1365 1361 1361 1363 1362 1359 1360 1360 1360 1361 1361 1360 1360 1364 1368 1374 1379 1385 1391 1398 1406 1414 1421 1427 1434 1439 1444 1448 1451 1454 1457 1459 1460 1461 1461 1461 1460 1458 1455 1452 1448
1394 1387 1378 1367 1361 1359 1363 1361 1353 1355 1357 1359 1363 1364 1363 1362 1365 1370 1376 1381 1387 1394 1401 1408 1415 1422 1428 1434 1439 1443 1448 1451 1454 1456 1458 1459 1459 1459 1458 1456 1454 1451 1448 1444
1392 1389 1378 1366 1362 1362 1367 1361 1353 1353 1354 1357 1361 1362 1364 1364 1368 1373 1378 1383 1389 1395 1402 1409 1416 1423 1429 1434 1440 1444 1448 1451 1453 1455 1456 1457 1457 1456 1455 1453 1450 1447 1444 1440
1390 1387 1380 1365 1363 1365 1362 1356 1353 1352 1353 1356 1360 1363 1365 1367 1371 1375 1380 1386 1391 1397 1404 1411 1418 1424 1430 1436 1440 1444 1448 1450 1452 1454 1455 1455 1455 1453 1451 1449 1445 1442 1438 1434
1381 1377 1367 1365 1364 1361 1359 1356 1354 1353 1353 1356 1360 1364 1367 1370 1374 1379 1384 1389 1395 1400 1406 1414 1421 1427 1432 1437 1441 1445 1448 1450 1452 1453 1453 1453 1452 1450 1448 1444 1441 1437 1432 1428
1375 1368 1364 1363 1362 1360 1358 1356 1354 1354 1355 1357 1360 1365 1369 1373 1378 1383 1388 1393 1398 1404 1410 1417 1424 1430 1435 1438 1442 1445 1448 1449 1451 1451 1451 1451 1449 1447 1444 1440 1436 1432 1428 1423
1371 1365 1362 1360 1361 1360 1359 1358 1357 1358 1359 1362 1364 1369 1373 1377 1383 1387 1392 1398 1403 1409 1414 1420 1427 1432 1437 1440 1443 1446 1447 1449 1450 1450 1449 1448 1446 1444 1440 1437 1433 1429 1424 1420
1366 1361 1362 1361 1360 1361 1361 1361 1362 1362 1364 1368 1371 1373 1378 1383 1388 1393 1398 1403 1408 1414 1419 1425 1430 1434 1438 1442 1444 1446 1447 1448 1448 1448 1447 1445 1443 1441 1438 1435 1431 1426 1422 1418
1359 1359 1359 1360 1361 1363 1363 1365 1366 1368 1370 1373 1378 1381 1384 1389 1394 1399 1404 1409 1414 1419 1423 1428 1433 1436 1440 1442 1444 1446 1446 1447 1447 1446 1444 1442 1439 1436 1433 1430 1428 1423 1419 1414
1357 1358 1359 1360 1362 1364 1366 1368 1371 1374 1377 1381 1384 1388 1391 1395 1400 1405 1410 1415 1419 1423 1428 1432 1435 1438 1441 1443 1444 1445 1446 1446 1445 1444 1442 1439 1436 1433 1429 1424 1420 1417 1414 1409
1356 1357 1358 1359 1362 1366 1368 1371 1374 1378 1382 1386 1390 1393 1397 1400 1405 1410 1415 1419 1423 1427 1431 1434 1437 1439 1441 1443 1444 1445 1445 1444 1443 1441 1439 1436 1433 1429 1426 1421 1417 1412 1407 1403
1355 1356 1357 1360 1363 1367 1371 1374 1377 1381 1386 1390 1394 1398 1402 1406 1410 1414 1419 1423 1426 1430 1433 1436 1438 1440 1442 1443 1444 1444 1443 1442 1440 1438 1436 1433 1429 1426 1422 1418 1413 1408 1403 1397
1353 1355 1358 1361 1364 1369 1373 1376 1380 1384 1389 1393 1398 1402 1405 1409 1413 1418 1422 1426 1430 1432 1435 1438 1439 1441 1442 1443 1443 1442 1441 1440 1438 1436 1433 1430 1426 1422 1418 1414 1409 1404 1400 1395
1354 1356 1357 1359 1363 1369 1374 1379 1384 1388 1392 1397 1401 1405 1409 1412 1416 1420 1424 1428 1431 1434 1436 1438 1440 1441 1442 1442 1442 1441 1439 1438 1435 1433 1430 1426 1423 1419 1415 1410 1406 1401 1395 1391
1354 1356 1359 1363 1367 1372 1376 1382 1387 1392 1396 1400 1404 1408 1412 1416 1420 1423 1427 1430 1433 1435 1437 1439 1440 1441 1441 1441 1440 1439 1437 1435 1433 1430 1427 1423 1420 1416 1411 1407 1402 1397 1392 1387
1355 1357 1360 1364 1370 1375 1380 1385 1390 1395 1399 1404 1407 1411 1415 1419 1423 1426 1429 1432 1434 1436 1438 1439 1440 1440 1440 1440 1438 1437 1435 1432 1429 1426 1423 1420 1416 1412 1408 1403 1399 1394 1389 1384
1355 1358 1362 1366 1372 1378 1383 1388 1393 1397 1402 1407 1410 1413 1417 1421 1425 1428 1430 1433 1435 1437 1438 1439 1440 1440 1439 1438 1436 1434 1432 1429 1426 1423 1420 1416 1412 1408 1404 1400 1396 1391 1386 1382
1356 1360 1364 1369 1374 1380 1386 1391 1396 1400 1404 1409 1413 1416 1419 1423 1426 1429 1432 1434 1436 1437 1438 1439 1439 1438 1437 1436 1434 1432 1429 1426 1423 1420 1416 1413 1409 1405 1401 1397 1393 1388 1384 1379
1358 1362 1366 1371 1376 1382 1388 1394 1399 1403 1407 1411 1415 1418 1421 1424 1428 1430 1432 1435 1436 1437 1438 1438 1437 1437 1435 1433 1431 1429 1426 1423 1420 1417 1413 1410 1406 1402 1398 1394 1390 1386 1382 1377
1361 1364 1369 1374 1380 1385 1391 1396 1401 1406 1410 1413 1417 1421 1424 1426 1428 1431 1433 1434 1436 1437 1437 1437 1436 1435 1433 1431 1429 1426 1423 1420 1417 1413 1410 1406 1403 1399 1395 1391 1387 1384 1380 1375
1363 1367 1373 1378 1383 1388 1393 1398 1403 1407 1411 1415 1418 1422 1425 1428 1430 1431 1433 1434 1435 1436 1436 1435 1434 1433 1431 1428 1426 1423 1420 1417 1413 1410 1407 1403 1400 1396 1393 1389 1385 1381 1377 1373
1367 1371 1376 1381 1386 1390 1395 1399 1403 1408 1412 1416 1419 1423 1425 1428 1430 1432 1433 1434 1435 1435 1434 1433 1432 1430 1428 1426 1423 1420 1417 1414 1411 1407 1403 1400 1396 1393 1390 1386 1383 1379 1376 1372
1370 1375 1379 1384 1389 1394 1398 1402 1406 1410 1414 1417 1420 1423 1426 1428 1430 1432 1433 1434 1434 1434 1433 1431 1430 1428 1425 1423 1420 1417 1414 1410 1407 1404 1400 1397 1394 1390 1387 1384 1380 1377 1374 1370